Regional Weather Roundup
Issued by NWS Midland/Odessa, TX

Home | Current Version | Previous Version | Text Only | Print | Product List | Glossary On
Versions: 1 2 3 4 5 6 7 8 9 10 11 12 13 14 15 16 17 18 19 20 21 22 23 24 25 26 27 28 29 30 31 32 33 34 35 36 37 38 39 40 41 42 43 44 45 46 47 48 49 50
000
ASUS44 KMAF 011110
RWRMAF
MIDLAND AREA WEATHER ROUNDUP
NATIONAL WEATHER SERVICE MIDLAND TX
600 AM CDT FRI AUG 01 2014

...IN SOUTHWEST TEXAS AND SOUTHEAST NEW MEXICO...

CITY           SKY/WX    TMP DP  RH WIND       PRES   REMARKS
ALPINE         MOCLDY    65  59  79 NW3       30.25R
ANDREWS        FAIR      66  60  80 E6        30.16S
ARTESIA        CLOUDY    66  64  94 N8        30.18S
BIG SPRING     CLOUDY    69  61  76 NE5       30.16R
CARLSBAD       CLOUDY    71  64  78 NW16      30.15R
DRYDEN           N/A     79  62  56 E8        30.07R
FORT STOCKTON  CLOUDY    72  60  66 E9        30.12R
GUAD PASS      CLOUDY    64  59  83 NE24        N/A
HOBBS          NOT AVBL
MARFA          CLOUDY    66  59  77 W16G24    30.25R
MIDLAND AIRPK  MOCLDY    69  62  78 E5        30.14S
MIDLAND INTL   MOCLDY    69  61  75 E9        30.13S
ODESSA         MOCLDY    69  60  73 E9        30.14S
PECOS          CLOUDY    73  60  63 E12       30.12R
PRESIDIO       PTSUNNY   77  65  67 W12       30.08S
SEMINOLE       CLOUDY    65  59  79 E3        30.18S
SNYDER         MOCLDY    65  62  90 NE3       30.13S
WINK           MOCLDY    73  62  68 E9        30.12R
$$
...OTHER STATIONS IN TEXAS...

CITY           SKY/WX    TMP DP  RH WIND       PRES   REMARKS
ABILENE        MOCLDY    65  63  93 NW3       30.09R
AMARILLO       PTCLDY    59  55  87 SW7       30.19S
AUSTIN         CLOUDY    75  65  70 N9        30.00S
BROWNSVILLE    CLEAR     79  76  90 S9        29.91R
CORPUS CHRISTI MOCLDY    77  74  90 CALM      29.93R
DALLAS FTW     CLOUDY    71  66  84 N12       30.01S
DEL RIO        PTCLDY    78  67  68 CALM      29.98R
EL PASO        CLOUDY    67  62  84 N13       30.17S
HOUSTON INT    CLOUDY    75  73  94 W5        29.96R
LUBBOCK        PTCLDY    63  58  83 CALM      30.17R
SAN ANGELO     PTCLDY    66  62  87 E3        30.08S
SAN ANTONIO    CLOUDY    79  63  57 NE8       30.00S
WACO           CLOUDY    72  65  78 N7        30.01R
WICHITA FALLS  NOT AVBL
$$
...OTHER LOCATIONS IN NEW MEXICO...

CITY           SKY/WX    TMP DP  RH WIND       PRES   REMARKS
ALAMAGORDO     LGT RAIN  64  64 100 SE5       30.19F
ALBUQUERQUE    PTCLDY    63  55  75 CALM      30.26S
CANNON AFB     CLOUDY    64  55  73 CALM      30.23F
CLOVIS         NOT AVBL
HOLLOMAN AFB   MOCLDY    64  64 100 CALM      30.18S
ROSWELL        LGT RAIN  68  63  84 W6        30.17F
RUIDOSO        LGT RAIN  55  55 100 S8        30.37R
SANTA FE       PTCLDY    56  52  86 SE6       30.32S
TRUTH OR CONSE MOCLDY    64  59  83 CALM      30.23R
TUCUMCARI      CLOUDY    68  55  63 S6        30.21F
$$



USA.gov is the U.S. government's official web portal to all federal, state and local government web resources and services.